STARLINK-30260 (57524 NORAD) Tracking and Keplerian Element Data

This shows tracking and keplerian element data for the satellite.

Feedback or suggestion? Click here.




ElementValue
Catalog57524
NameSTARLINK-30260
Epoch Orbit2478
Epoch Day13.19846355
Epoch Year2024
RAAN318.4916
Inclination43.0034
Eccentricity0.0001093
Argument of Perigee254.2436
Mean Anonmoly105.8286
Mean Motion15.02543543
Decay Rate5.528E-05
L11 57524U 23115D 24013.19846355 .00005528 00000+0 42388-3 0 9993
L22 57524 43.0034 318.4916 0001093 254.2436 105.8286 15.02543543 24783



Live tracking and technical data element details for STARLINK-30260 (NORAD 57524). STARLINK-30260 can be tracked NOW for your location showing map with azimuth and elevation plus other details from your city location.







IsCatalogInMostPopularTable: catalog: 57524, numindb: 23
Update: records affected: 1



GetName: 57524 STARLINK-30260

Hit Count: updated at: Thu, 22 Feb 2024 00:26:22 GMT